Flag for Germany Weather past 2 weeks in Nürtingen, Baden-Württemberg, Germany

Now
64 °F

Partly sunny.


Feels Like: 64 °F
Forecast: 44 / 66 °F
Wind: 6 mph from North

Location: Stuttgart-Echterdingen

Current Time: May 24, 2015 at 11:42:14 AM

Latest Report: May 24, 2015 at 11:20 AM


Visibility: N/A

Pressure: 30.07 "Hg

Humidity: 56%

Dew point: 48 °F

Location of NürtingenLocation

Historic Weather in Nürtingen — Graph

°F

Nürtingen temperature yesterday

Maximum temperature yesterday: 64 °F (at 2:20 PM)
Minimum temperature yesterday: 43 °F (at 5:20 AM)
Average temperature yesterday: 56 °F

Past Weeks' High & Low Weather Summary

 TemperatureHumidityPressure
High84 °F (May 12, 2:20 PM)100% (May 15, 4:20 AM)30.36 "Hg (May 15, 4:20 AM)
Low37 °F (May 22, 5:50 AM)25% (May 18, 6:20 PM)29.74 "Hg (May 18, 6:20 PM)
Average58 °F67%30.09 "Hg
* Reported May 9 10:20 AM — May 24 10:20 AM, Nürtingen, Weather by CustomWeather, © 2015

Note: Actual official high and low records may vary slightly from our data, if they occured in-between our weather recording intervals... More about our weather records

Advertising

Nürtingen weather history for previous 24 hours

 ConditionsComfort  
Time TempWeatherWind HumidityBarometerVisibility
10:20 AM
Sun, May 24
63 °FPartly sunny.3 mph59%30.07 "HgN/A
9:50 AM61 °FPassing clouds.6 mph68%30.07 "HgN/A
9:20 AM61 °FPassing clouds.7 mph68%30.07 "HgN/A
8:50 AM59 °FPassing clouds.6 mph72%30.07 "HgN/A
8:20 AM57 °FPassing clouds.5 mph77%30.07 "HgN/A
7:50 AM57 °FPassing clouds.6 mph72%30.07 "HgN/A
7:20 AM55 °FSunny.6 mph77%30.07 "Hg10 mi
6:50 AM55 °FPassing clouds.6 mph77%30.07 "HgN/A
6:20 AM57 °FPassing clouds.5 mph67%30.07 "HgN/A
5:50 AM55 °FClear.5 mph77%30.07 "Hg10 mi
5:20 AM55 °FClear.3 mph72%30.07 "Hg10 mi
4:50 AM55 °FClear.5 mph77%30.07 "Hg10 mi
4:20 AM57 °FClear.3 mph72%30.07 "Hg10 mi
3:50 AM57 °FClear.5 mph72%30.07 "Hg10 mi
3:20 AM57 °FClear.3 mph72%30.07 "Hg10 mi
2:50 AM57 °FClear.3 mph72%30.07 "Hg10 mi
2:20 AM57 °FPassing clouds.5 mph67%30.07 "HgN/A
1:50 AM59 °FPassing clouds.5 mph63%30.07 "HgN/A
1:20 AM59 °FClear.7 mph63%30.07 "Hg10 mi
12:50 AM59 °FPassing clouds.6 mph63%30.07 "HgN/A
12:20 AM59 °FClear.6 mph63%30.07 "Hg10 mi
11:50 PM
Sat, May 23
59 °FClear.7 mph63%30.07 "Hg10 mi
11:20 PM61 °FClear.6 mph59%30.07 "Hg10 mi
10:50 PM61 °FPassing clouds.5 mph59%30.07 "HgN/A
10:20 PM61 °FClear.7 mph55%30.07 "Hg10 mi
9:50 PM61 °FPassing clouds.7 mph55%30.07 "HgN/A
9:20 PM61 °FSunny.7 mph55%30.07 "Hg10 mi
8:50 PM61 °FPassing clouds.7 mph48%30.07 "HgN/A
8:20 PM63 °FPassing clouds.7 mph49%30.07 "HgN/A
7:50 PM63 °FPassing clouds.7 mph45%30.07 "HgN/A
7:20 PM63 °FPassing clouds.9 mph45%30.04 "HgN/A
6:50 PM63 °FPassing clouds.10 mph45%30.04 "HgN/A
6:20 PM64 °FPassing clouds.9 mph43%30.04 "HgN/A
5:50 PM64 °FPassing clouds.12 mph43%30.04 "HgN/A
5:20 PM64 °FPassing clouds.14 mph43%30.07 "HgN/A
4:50 PM64 °FSunny.12 mph43%30.07 "Hg10 mi
4:20 PM64 °FPassing clouds.9 mph46%30.07 "HgN/A
3:50 PM64 °FPassing clouds.12 mph43%30.07 "HgN/A
3:20 PM64 °FPassing clouds.12 mph43%30.07 "HgN/A
2:50 PM64 °FPassing clouds.9 mph43%30.07 "HgN/A
2:20 PM64 °FPassing clouds.8 mph46%30.07 "HgN/A
1:50 PM63 °FPassing clouds.8 mph45%30.09 "HgN/A
1:20 PM63 °FPassing clouds.7 mph49%30.09 "HgN/A
12:50 PM63 °FPassing clouds.7 mph49%30.09 "HgN/A
12:20 PM63 °FScattered clouds.10 mph49%30.09 "HgN/A
11:50 AM63 °FScattered clouds.6 mph49%30.09 "HgN/A
11:20 AM61 °FScattered clouds.3 mph55%30.12 "HgN/A
Weather by CustomWeather, © 2015

See weather overviewHow to use our weather pages